Regional Weather Roundup
Issued by NWS Charleston, SC

Home | Current Version | Previous Version | Text Only | Print | Product List | Glossary On
Versions: 1 2 3 4 5 6 7 8 9 10 11 12 13 14 15 16 17 18 19 20 21 22 23 24 25 26 27 28 29 30 31 32 33 34 35 36 37 38 39 40 41 42 43 44 45 46 47 48 49 50
000
ASUS42 KCHS 231326
RWRCHS

REGIONAL WEATHER ROUNDUP
NATIONAL WEATHER SERVICE CHARLESTON SC
800 AM EST THU FEB 23 2017

NOTE: "FAIR" INDICATES FEW OR NO CLOUDS BELOW 12,000 FEET WITH NO
SIGNIFICANT WEATHER AND/OR OBSTRUCTIONS TO VISIBILITY.

NOT ALL STATIONS ARE QUALITY CONTROLLED. USE DATA WITH CAUTION...
ESPECIALLY DEWPOINT OBSERVATIONS.

SCZ027-030-031-034>040-042>050-231400-
...SOUTHEAST SOUTH CAROLINA...

CITY           SKY/WX    TMP DP  RH WIND       PRES   REMARKS
N CHARLESTON   PTSUNNY   62  57  83 N7        29.88R
WATERFRONT PRK   N/A     62  60  93 N9        29.85R
MOUNT PLEASANT CLOUDY    63  61  94 CALM      29.88R
JOHNS ISLAND   DRIZZLE   64  61  88 N10       29.87R
PINOPOLIS        N/A     59  57  94 N5        29.80R
MONCKS CORNER  CLOUDY    59  55  88 N3        29.91R
SUMMERVILLE    CLOUDY    59  55  88 N6        29.91R
BEAUFORT MCAS  CLOUDY    63  61  93 MISG      29.87R
BEAUFORT ARPT  PTSUNNY   63  59  88 N12       29.86R
HILTON HEAD IS PTSUNNY   63  61  94 NE9       29.85R
WALTERBORO     MOSUNNY   59  55  88 NE6       29.90S
ALLENDALE      FAIR      61  57  88 N6        29.88S

...SOUTHERN MIDLANDS AND PEE DEE...

CITY           SKY/WX    TMP DP  RH WIND       PRES   REMARKS
GEORGETOWN     CLOUDY    61  57  88 NE8       29.90R
KINGSTREE      CLOUDY    55  52  88 N3        29.93R
ORANGEBURG     MOSUNNY   58  54  86 NE6       29.91R
BARNWELL       FAIR      61  57  88 NE7       29.91R
AIKEN          FAIR      57  54  88 NE7       29.95R
MANNING        FAIR      55  50  82 MISG      29.92S
COLUMBIA       MOSUNNY   57  53  86 CALM      29.91R
SUMTER         MOSUNNY   56  53  91 NE7       29.90R
FLORENCE       MOSUNNY   57  54  89 NE3       29.94R
MYRTLE BEACH   PTSUNNY   63  57  82 NE9       29.92R
N MYRTLE BEACH PTSUNNY   60  57  89 NE6       29.91R

$$

GAZ063-065-086>088-099>101-113>116-118-119-134>141-150-231400-
...SOUTHEAST GEORGIA...

CITY           SKY/WX    TMP DP  RH WIND       PRES   REMARKS
SAVANNAH ARPT  PTSUNNY   62  58  86 N10       29.85R
HUNTER AAF     MOSUNNY   62  62 100 CALM      29.82R
FORT STEWART   MOSUNNY   61  58  92 N10       29.81R
STATESBORO     MOSUNNY   61  61 100 NE8       29.88R
SYLVANIA       MOSUNNY  N/A N/A N/A NE7       29.89R
CLAXTON        FAIR     N/A N/A N/A N3        29.87R

...CSRA...CENTRAL AND FAR SOUTHEAST GEORGIA...

CITY           SKY/WX    TMP DP  RH WIND       PRES   REMARKS
THOMSON        SUNNY     59  59 100 CALM      29.95S
AUGUSTA-BUSH   SUNNY     61  57  87 N7        29.90R
AUGUSTA-DANIEL MOSUNNY   61  54  77 N3        29.91R
SWAINSBORO     FAIR      59  59 100 NE5       29.90R
VIDALIA        MOSUNNY   61  61 100 NE10      29.87S
EASTMAN        FAIR      63  62  98 NE7       29.90R
HAZLEHURST     FAIR      62  62 100 NE5       29.85S
ALMA           CLOUDY    62  61  96 N7        29.84R
WAYCROSS       CLOUDY    66  66 100 N9        29.82R
JESUP          FAIR      63  59  88 NE8       29.82S
BAXLEY         CLOUDY    63  63 100 N8        29.85R
BRUNSWICK      PTSUNNY   64  63  94 NE12G17   29.80S
SAINT SIMONS   CLOUDY    64  61  90 N14       29.79R

$$

SCZ027-028-034-036>038-045-046-048>050-GAZ119-141-231400-
...LAKE AND SUPPLEMENTAL COASTAL OBSERVATIONS...

STATION/POSITION TIME  TEMP    WIND        PRES    WAVE   SWELL
                       AIR SEA DIR/SP/G            HT/PER HT/PER/DIR
                 (UTC) (F)     (DEG/KT/KT) (MB)    (FT/S) (FT/S/D)
WINYAH BAY       1245   62      50/  9     1012.0R
LAKE MURRAY      1220   56      20/  1/  3 1012.2S
ACE BASIN NERRS  1230   61      10/  2     1010.0S
FORT PULASKI     1300   63 61   20/  3/  6 1010.5
SAPELO ISLAND    1300   64      40/ 10     1009.0

$$

ANZ835-935-AMZ111-154-330-350-352-354-370-450-454-472-231400-
...C-MAN AND BUOY OBSERVATIONS...

STATION/POSITION TIME  TEMP    WIND        PRES    WAVE   SWELL
                       AIR SEA DIR/SP/G            HT/PER HT/PER/DIR
                 (UTC) (F)     (DEG/KT/KT) (MB)    (FT/S) (FT/S/D)
BUOY 41004       1250   71 69   70/ 14/ 17 1009.8R   7/ 8   5/130/ 8
BUOY 41008       1250   64 63   40/ 16/ 17 1008.0R   6/ 9   5/130/ 9
FOLLY BEACH CMAN 1300   62      20/ 12/ 13 1011.5R
CAPERS NEARSHORE 1208   61 59   50/ 12/ 16 1010.5R
FRIPP NEARSHORE  1308   63 60   30/ 14/ 17 1010.3R


STATION/POSITION TIME  TEMP    WIND        PRES    WAVE   SWELL
                       AIR SEA DIR/SP/G            HT/PER HT/PER/DIR
                 (UTC) (F)     (DEG/KT/KT) (MB)    (FT/S) (FT/S/D)
5E ST. MARYS GA  1300      63                N/A     8/ 9   2/110/11
FRYING PAN BUOY  1300   70 69  100/ 14/ 17 1011.9
BUOY 41025       1250   70 74  140/ 12/ 16 1014.2R   3/ 8   2/ 80/ 8
CAPE LOOKOUT NC  1300   65     110/  8/  8 1013.5R
BUOY 41002       1250   68 70  110/ 21/ 25 1012.4R   7/ 6   3/ 70/10
BUOY 41010       NOT AVBL
ST AUGUSTINE FL  1300   68 67   40/ 19/ 22 1006.3R


$$




USA.gov is the U.S. government's official web portal to all federal, state and local government web resources and services.